This demonstration page uses our WeatherBlox Daily Observations layout. Learn more.

Left ArrowRight Arrow

39.51506, -84.39828

Hourly Observations for December 3, 2022

Temp ( °F °C ) Dew Point ( °F °C ) Humidity (%) Winds ( mph kmh ) Pressure ( in mb ) Visibility ( mi km ) Precip ( " mm )
12:15 am 00:15 Cloudy with Light Rain 53 11.6 47 8.1 79 79 S 16 26 29.96 1015 10 16 0.00 0.00
12:35 am 00:35 Cloudy with Light Rain 52 11.3 48 9 86 86 SSW 15 24 29.96 1015 5 8 0.02 0.51
12:55 am 00:55 Cloudy 53 11.9 47 8.6 80 80 SSW 17 28 29.97 1015 10 16 0.02 0.51
1:10 am 01:10 Cloudy with Light Rain 53 11.6 48 9 84 84 SSW 16 26 29.98 1015 10 16 0.00 0.00
1:35 am 01:35 Cloudy with Light Rain 53 11.6 49 9.4 86 86 SSW 22 35 29.98 1015 10 16 0.00 0.00
1:55 am 01:55 Cloudy with Drizzle 52 11.1 51 10.4 95 95 SSW 15 24 29.99 1015 7 11 0.00 0.00
2:15 am 02:15 Cloudy with Drizzle 52 10.9 51 10.8 99 99 SSW 14 22 29.98 1015 10 16 0.00 0.00
2:35 am 02:35 Cloudy with Drizzle 52 10.9 N/A N/A SSW 16 26 29.98 1015 7 11 0.01 0.25
2:55 am 02:55 Cloudy with Drizzle 52 10.9 N/A N/A S 14 22 29.98 1015 5 8 0.01 0.25
3:15 am 03:15 Cloudy with Drizzle 52 11 N/A N/A SSW 13 20 29.98 1015 7 11 0.00 0.00
3:35 am 03:35 Cloudy with Drizzle 52 11.1 N/A N/A SW 12 19 29.99 1015 5 8 0.00 0.00
3:55 am 03:55 Cloudy with Drizzle 52 11.3 N/A N/A SSW 13 20 29.98 1015 3 5 0.01 0.25
4:15 am 04:15 Cloudy with Drizzle 53 11.4 N/A N/A SSW 15 24 29.98 1015 4 6 0.00 0.00
4:35 am 04:35 Cloudy 53 11.5 N/A N/A SSW 14 22 29.98 1015 7 11 0.00 0.00
4:55 am 04:55 Cloudy 53 11.6 N/A N/A SSW 13 20 29.98 1015 10 16 0.00 0.00
5:15 am 05:15 Cloudy 53 11.8 N/A N/A SSW 13 20 29.98 1015 10 16 0.00 0.00
5:35 am 05:35 Cloudy 53 11.9 N/A N/A SSW 14 22 30.00 1016 10 16 0.00 0.00
5:55 am 05:55 Cloudy 54 12.4 54 12 97 97 SW 14 22 29.99 1016 10 16 0.00 0.00
6:15 am 06:15 Cloudy 55 12.9 53 11.5 91 91 SW 16 26 30.00 1016 10 16 0.00 0.00
6:35 am 06:35 Cloudy 55 12.9 52 11.3 90 90 SW 17 28 30.00 1016 10 16 0.00 0.00
6:55 am 06:55 Cloudy 55 13 52 11 88 88 SW 14 22 30.01 1016 10 16 0.00 0.00
7:15 am 07:15 Cloudy 55 13 51 10.8 86 86 SW 14 22 30.02 1017 10 16 0.00 0.00
7:35 am 07:35 Cloudy 56 13.1 51 10.6 85 85 SW 16 26 30.04 1017 10 16 0.00 0.00
7:55 am 07:55 Cloudy 56 13.3 51 10.3 82 82 SW 15 24 30.05 1018 10 16 0.00 0.00
8:15 am 08:15 Cloudy 48 8.9 38 3.5 69 69 W 21 33 30.13 1020 10 16 0.01 0.25
8:35 am 08:35 Cloudy 47 8.2 34 0.9 60 60 W 22 35 30.15 1021 10 16 0.01 0.25
8:55 am 08:55 Cloudy 45 7.4 34 1 64 64 W 13 20 30.19 1022 10 16 0.01 0.25
9:15 am 09:15 Partly Cloudy 43 6.3 32 0.2 65 65 W 14 22 30.20 1023 10 16 0.00 0.00
9:35 am 09:35 Sunny 44 6.4 29 -1.5 57 57 W 20 31 30.22 1023 10 16 0.00 0.00
9:55 am 09:55 Sunny 43 5.9 27 -2.7 54 54 W 13 20 30.23 1024 10 16 0.00 0.00
10:15 am 10:15 Sunny 42 5.8 29 -1.9 58 58 W 21 33 30.25 1024 10 16 0.00 0.00
10:35 am 10:35 Sunny 42 5.7 27 -2.8 54 54 W 12 19 30.26 1025 10 16 0.00 0.00
10:55 am 10:55 Sunny 42 5.7 28 -2.4 56 56 W 16 26 30.27 1025 10 16 0.00 0.00
11:15 am 11:15 Sunny 42 5.6 28 -2.5 56 56 W 14 22 30.29 1026 10 16 0.00 0.00
11:35 am 11:35 Sunny 43 6 27 -2.9 53 53 W 15 24 30.30 1026 10 16 0.00 0.00
11:55 am 11:55 Sunny 42 5.8 25 -3.8 50 50 W 14 22 30.31 1026 10 16 0.00 0.00
12:15 pm 12:15 Sunny 42 5.8 25 -3.8 50 50 WNW 7 11 30.32 1027 10 16 0.00 0.00
12:35 pm 12:35 Sunny 43 6.2 25 -3.9 48 48 W 10 17 30.32 1027 10 16 0.00 0.00
12:55 pm 12:55 Sunny 44 6.5 25 -4.1 47 47 WNW 14 22 30.32 1027 10 16 0.00 0.00
1:15 pm 13:15 Sunny 44 6.4 25 -3.7 48 48 W 16 26 30.33 1027 10 16 0.00 0.00
1:35 pm 13:35 Sunny 43 6 24 -4.2 48 48 WNW 15 24 30.35 1028 10 16 0.00 0.00
1:55 pm 13:55 Sunny 42 5.8 22 -5.3 45 45 NW 13 20 30.35 1028 10 16 0.00 0.00
2:15 pm 14:15 Sunny 43 6 24 -4.4 47 47 WNW 13 20 30.36 1028 10 16 0.00 0.00
2:35 pm 14:35 Sunny 43 6 24 -4.2 48 48 W 12 19 30.36 1028 10 16 0.00 0.00
2:55 pm 14:55 Sunny 42 5.4 22 -5.6 45 45 WNW 10 17 30.37 1029 10 16 0.00 0.00
3:15 pm 15:15 Sunny 42 5.6 23 -5 46 46 W 9 15 30.38 1029 10 16 0.00 0.00
3:35 pm 15:35 Sunny 41 5.1 22 -5.3 47 47 W 12 19 30.39 1029 10 16 0.00 0.00
3:55 pm 15:55 Sunny 41 5.1 23 -5 48 48 W 12 19 30.40 1030 10 16 0.00 0.00
4:15 pm 16:15 Sunny 40 4.4 23 -5.2 50 50 W 16 26 30.41 1030 10 16 0.00 0.00
4:35 pm 16:35 Sunny 39 3.7 21 -6 49 49 W 14 22 30.42 1030 10 16 0.00 0.00
4:55 pm 16:55 Sunny 38 3.2 21 -6.1 50 50 W 9 15 30.43 1030 10 16 0.00 0.00
5:15 pm 17:15 Clear 35 1.9 21 -6 56 56 W 5 7 30.43 1030 10 16 0.00 0.00
5:35 pm 17:35 Clear 35 1.8 22 -5.7 57 57 W 8 13 30.44 1031 10 16 0.00 0.00
5:55 pm 17:55 Clear 33 0.8 21 -5.9 61 61 WNW 6 9 30.46 1032 10 16 0.00 0.00
6:15 pm 18:15 Clear 33 0.7 21 -5.9 61 61 WNW 6 9 30.46 1032 10 16 0.00 0.00
6:35 pm 18:35 Clear 32 -0.1 22 -5.7 66 66 W 3 6 30.47 1032 10 16 0.00 0.00
6:55 pm 18:55 Clear 32 0.2 22 -5.4 66 66 Calm 30.47 1032 10 16 0.00 0.00
7:15 pm 19:15 Clear 29 -1.5 23 -5.1 76 76 WSW 5 7 30.48 1032 10 16 0.00 0.00
7:35 pm 19:35 Clear 28 -2.3 20 -6.5 73 73 W 5 7 30.48 1032 10 16 0.00 0.00
7:55 pm 19:55 Clear 27 -2.8 22 -5.7 80 80 Calm 30.48 1032 10 16 0.00 0.00
8:15 pm 20:15 Clear 29 -1.7 21 -6.3 71 71 W 3 6 30.48 1032 10 16 0.00 0.00
8:35 pm 20:35 Clear 28 -2.1 20 -6.6 71 71 W 6 9 30.47 1032 10 16 0.00 0.00
8:55 pm 20:55 Clear 28 -2.4 20 -6.8 72 72 W 6 9 30.47 1032 10 16 0.00 0.00
9:15 pm 21:15 Clear 27 -2.6 19 -7.1 71 71 WNW 6 9 30.48 1032 10 16 0.00 0.00
9:35 pm 21:35 Clear 28 -2.5 19 -7.2 70 70 WNW 6 9 30.49 1033 10 16 0.00 0.00
9:55 pm 21:55 Clear 28 -2.5 18 -7.7 67 67 WNW 5 7 30.50 1033 10 16 0.00 0.00
10:15 pm 22:15 Clear 28 -2.4 18 -7.9 66 66 WNW 3 6 30.50 1033 10 16 0.00 0.00
10:35 pm 22:35 Clear 28 -2 17 -8.1 63 63 Calm 30.50 1033 10 16 0.00 0.00
10:55 pm 22:55 Clear 27 -2.9 18 -8 68 68 Calm 30.50 1033 10 16 0.00 0.00
11:15 pm 23:15 Clear 24 -4.4 16 -8.9 71 71 Calm 30.51 1033 10 16 0.00 0.00
11:35 pm 23:35 Clear 25 -3.7 18 -7.7 74 74 NNW 3 6 30.51 1033 10 16 0.00 0.00
11:55 pm 23:55 Clear 25 -4.1 17 -8.3 72 72 Calm 30.51 1033 10 16 0.00 0.00

Powered by AerisWeather